Terminal Aerodrome Forecast
Issued by NWS Charleston, WV

Current Version | Previous Version | Graphics & Text | Print | Product List | Glossary On
Versions: 1 2 3 4 5 6 7 8 9 10 11 12 13 14 15 16 17 18 19 20 21 22 23
000
FTUS41 KRLX 241500 AAA
TAFBKW
TAF AMD
KBKW 241505Z 2415/2512 13009KT P6SM BKN015
     FM241700 13008KT P6SM SCT025
      TEMPO 2417/2419 BKN025
     FM250600 13007KT P6SM SCT015=

USA.gov is the U.S. government's official web portal to all federal, state and local government web resources and services.